• En España
  • Lista de países
  • Para 7 días
  • Temperatura del agua
  • Mapa Satelital
  • El tiempo en el mapa
  • Informadores
  • user-avatar
    Iniciar sesión

    Tiempo cada hora Debki

    Hoy, 25 Noviembre, Sábado

    Tiempo Temperatura Precipitaciones Viento Presión Humedad
    00:00 +4°C° 0 mm 6 mps 757 mmHg 91%
    01:00 +3°C° 0 mm 6 mps 758 mmHg 94%
    02:00 +3°C° 0 mm 5 mps 758 mmHg 94%
    03:00 +3°C° 0 mm 5 mps 758 mmHg 94%
    04:00 +4°C° 0 mm 4 mps 758 mmHg 94%
    05:00 +4°C° 0 mm 4 mps 758 mmHg 94%
    06:00 +4°C° 0 mm 4 mps 758 mmHg 94%
    07:00 +4°C° 0 mm 3 mps 758 mmHg 94%
    08:00 +4°C° 0,1 mm 3 mps 757 mmHg 92%
    09:00 +5°C° 0,1 mm 2 mps 757 mmHg 90%
    10:00 +5°C° 0,1 mm 2 mps 757 mmHg 88%
    11:00 +5°C° 0,5 mm 2 mps 756 mmHg 89%
    12:00 +5°C° 0,5 mm 2 mps 756 mmHg 89%
    13:00 +5°C° 0,5 mm 2 mps 755 mmHg 90%
    14:00 +4°C° 1,4 mm 3 mps 755 mmHg 91%
    15:00 +4°C° 1,4 mm 4 mps 754 mmHg 92%
    16:00 +3°C° 1,4 mm 5 mps 754 mmHg 94%
    17:00 +3°C° 1,6 mm 5 mps 753 mmHg 94%
    18:00 +3°C° 1,6 mm 5 mps 753 mmHg 94%
    19:00 +3°C° 1,6 mm 6 mps 752 mmHg 94%
    20:00 +4°C° 1 mm 6 mps 752 mmHg 93%
    21:00 +4°C° 1 mm 7 mps 752 mmHg 92%
    22:00 +4°C° 1 mm 8 mps 752 mmHg 90%
    23:00 +4°C° 0,7 mm 8 mps 753 mmHg 86%

    Mañana, 26 Noviembre, Domingo

    Tiempo Temperatura Precipitaciones Viento Presión Humedad
    00:00 +2°C° 0,7 mm 8 mps 753 mmHg 81%
    01:00 +2°C° 0,7 mm 8 mps 754 mmHg 77%
    02:00 +3°C° 0,1 mm 7 mps 755 mmHg 79%
    03:00 +3°C° 0,1 mm 7 mps 755 mmHg 81%
    04:00 +3°C° 0,1 mm 6 mps 756 mmHg 83%
    05:00 +2°C° 0 mm 6 mps 757 mmHg 85%
    06:00 +2°C° 0 mm 6 mps 757 mmHg 86%
    07:00 +2°C° 0 mm 7 mps 758 mmHg 88%
    08:00 +2°C° 0 mm 7 mps 758 mmHg 85%
    09:00 +1°C° 0 mm 8 mps 758 mmHg 83%
    10:00 +1°C° 0 mm 9 mps 759 mmHg 80%
    11:00 +1°C° 0 mm 9 mps 759 mmHg 77%
    12:00 +2°C° 0 mm 9 mps 759 mmHg 73%
    13:00 +2°C° 0 mm 9 mps 760 mmHg 70%
    14:00 +2°C° 0 mm 9 mps 760 mmHg 72%
    15:00 +1°C° 0 mm 9 mps 760 mmHg 74%
    16:00 +1°C° 0 mm 9 mps 760 mmHg 77%
    17:00 +1°C° 0 mm 9 mps 760 mmHg 77%
    18:00 +1°C° 0 mm 9 mps 760 mmHg 76%
    19:00 +1°C° 0 mm 10 mps 760 mmHg 76%
    20:00 +1°C° 0,1 mm 10 mps 760 mmHg 76%
    21:00 +1°C° 0,1 mm 10 mps 760 mmHg 77%
    22:00 +1°C° 0,1 mm 10 mps 760 mmHg 77%
    23:00 +1°C° 0,1 mm 11 mps 760 mmHg 78%

    Pasado mañana, 27 Noviembre, Lunes

    Tiempo Temperatura Precipitaciones Viento Presión Humedad
    00:00 +1°C° 0,1 mm 11 mps 760 mmHg 80%
    01:00 +2°C° 0,1 mm 11 mps 760 mmHg 81%
    02:00 +1°C° 0,1 mm 11 mps 760 mmHg 81%
    03:00 +1°C° 0,1 mm 11 mps 760 mmHg 82%
    04:00 +1°C° 0,1 mm 11 mps 760 mmHg 82%
    05:00 +1°C° 0,1 mm 11 mps 760 mmHg 82%
    06:00 +1°C° 0,1 mm 11 mps 760 mmHg 82%
    07:00 -1°C° 0,1 mm 11 mps 761 mmHg 82%
    08:00 +1°C° 0,1 mm 11 mps 761 mmHg 81%
    09:00 +1°C° 0,1 mm 11 mps 761 mmHg 80%
    10:00 +1°C° 0,1 mm 11 mps 761 mmHg 79%
    11:00 +1°C° 0,1 mm 10 mps 762 mmHg 78%
    12:00 +1°C° 0,1 mm 10 mps 762 mmHg 77%
    13:00 +1°C° 0,1 mm 10 mps 762 mmHg 77%
    14:00 +1°C° 0 mm 9 mps 761 mmHg 77%
    15:00 0°C° 0 mm 9 mps 761 mmHg 78%
    16:00 0°C° 0 mm 8 mps 761 mmHg 79%
    17:00 0°C° 0 mm 9 mps 761 mmHg 79%
    18:00 0°C° 0 mm 9 mps 760 mmHg 80%
    19:00 0°C° 0 mm 10 mps 760 mmHg 80%
    20:00 0°C° 0,2 mm 10 mps 759 mmHg 79%
    21:00 -1°C° 0,2 mm 11 mps 759 mmHg 78%
    22:00 +1°C° 0,2 mm 11 mps 758 mmHg 77%
    23:00 +1°C° 0,3 mm 11 mps 758 mmHg 78%

    28 Noviembre, Martes

    Tiempo Temperatura Precipitaciones Viento Presión Humedad
    00:00 +1°C° 0,3 mm 11 mps 757 mmHg 79%
    01:00 +1°C° 0,3 mm 11 mps 757 mmHg 80%
    02:00 +1°C° 0,3 mm 11 mps 757 mmHg 81%
    03:00 +1°C° 0,3 mm 10 mps 756 mmHg 81%
    04:00 +1°C° 0,3 mm 10 mps 756 mmHg 82%
    05:00 +1°C° 0,1 mm 10 mps 756 mmHg 82%
    06:00 +1°C° 0,1 mm 10 mps 756 mmHg 83%
    07:00 +1°C° 0,1 mm 9 mps 755 mmHg 83%
    08:00 +1°C° 0,1 mm 9 mps 755 mmHg 82%
    09:00 +1°C° 0,1 mm 9 mps 755 mmHg 81%
    10:00 +1°C° 0,1 mm 9 mps 755 mmHg 80%
    11:00 +1°C° 0,5 mm 10 mps 755 mmHg 77%
    12:00 +2°C° 0,5 mm 10 mps 754 mmHg 74%
    13:00 +2°C° 0,5 mm 10 mps 753 mmHg 71%
    14:00 +2°C° 0,4 mm 10 mps 753 mmHg 71%
    15:00 +1°C° 0,4 mm 10 mps 753 mmHg 71%
    16:00 +1°C° 0,4 mm 10 mps 752 mmHg 71%
    17:00 +1°C° 0,3 mm 10 mps 752 mmHg 70%
    18:00 +1°C° 0,3 mm 10 mps 752 mmHg 70%
    19:00 +1°C° 0,3 mm 10 mps 752 mmHg 69%
    20:00 +1°C° 0,2 mm 10 mps 752 mmHg 71%
    21:00 +1°C° 0,2 mm 10 mps 751 mmHg 72%
    22:00 +1°C° 0,2 mm 10 mps 751 mmHg 74%
    23:00 +1°C° 0 mm 9 mps 751 mmHg 74%

    29 Noviembre, Miércoles

    Tiempo Temperatura Precipitaciones Viento Presión Humedad
    00:00 0°C° 0 mm 9 mps 751 mmHg 74%
    01:00 0°C° 0 mm 9 mps 751 mmHg 75%
    02:00 +1°C° 0 mm 9 mps 751 mmHg 77%
    03:00 +1°C° 0 mm 9 mps 751 mmHg 80%
    04:00 +1°C° 0 mm 9 mps 751 mmHg 83%
    05:00 +1°C° 0 mm 8 mps 751 mmHg 85%
    06:00 +1°C° 0 mm 8 mps 751 mmHg 86%
    07:00 +1°C° 0 mm 8 mps 751 mmHg 88%
    08:00 +1°C° 0 mm 8 mps 751 mmHg 87%
    09:00 +2°C° 0 mm 7 mps 751 mmHg 85%
    10:00 +2°C° 0 mm 7 mps 752 mmHg 84%
    11:00 +2°C° 0 mm 7 mps 751 mmHg 83%
    12:00 +2°C° 0 mm 7 mps 751 mmHg 81%
    13:00 +2°C° 0 mm 7 mps 751 mmHg 80%
    14:00 +2°C° 0 mm 6 mps 751 mmHg 80%
    15:00 +2°C° 0 mm 6 mps 751 mmHg 80%
    16:00 +2°C° 0 mm 6 mps 751 mmHg 80%
    17:00 +2°C° 0,1 mm 6 mps 751 mmHg 81%
    18:00 +2°C° 0,1 mm 6 mps 751 mmHg 81%
    19:00 +2°C° 0,1 mm 6 mps 751 mmHg 82%
    20:00 +2°C° 0,1 mm 6 mps 751 mmHg 81%
    21:00 +1°C° 0,1 mm 6 mps 751 mmHg 79%
    22:00 +1°C° 0,1 mm 6 mps 751 mmHg 77%
    23:00 +1°C° 0 mm 6 mps 751 mmHg 79%

    30 Noviembre, Jueves

    Tiempo Temperatura Precipitaciones Viento Presión Humedad
    00:00 -1°C° 0 mm 6 mps 751 mmHg 81%
    01:00 -1°C° 0 mm 7 mps 751 mmHg 83%
    02:00 -1°C° 0 mm 7 mps 751 mmHg 84%
    03:00 -2°C° 0 mm 7 mps 751 mmHg 85%
    04:00 -2°C° 0 mm 7 mps 751 mmHg 87%
    05:00 -2°C° 0 mm 7 mps 751 mmHg 86%
    06:00 -2°C° 0 mm 7 mps 751 mmHg 85%
    07:00 -2°C° 0 mm 7 mps 751 mmHg 85%
    08:00 -2°C° 0 mm 6 mps 751 mmHg 84%
    09:00 -2°C° 0 mm 6 mps 751 mmHg 83%
    10:00 -1°C° 0 mm 6 mps 751 mmHg 81%
    11:00 -1°C° 0 mm 6 mps 751 mmHg 81%
    12:00 +1°C° 0 mm 5 mps 751 mmHg 80%
    13:00 +1°C° 0 mm 5 mps 751 mmHg 80%
    14:00 +1°C° 0 mm 5 mps 751 mmHg 82%
    15:00 +1°C° 0 mm 5 mps 751 mmHg 83%
    16:00 0°C° 0 mm 5 mps 751 mmHg 85%
    17:00 0°C° 0,1 mm 5 mps 751 mmHg 86%
    18:00 0°C° 0,1 mm 5 mps 751 mmHg 87%
    19:00 0°C° 0,1 mm 5 mps 752 mmHg 88%
    20:00 0°C° 0,1 mm 5 mps 752 mmHg 87%
    21:00 -1°C° 0,1 mm 5 mps 752 mmHg 86%
    22:00 -1°C° 0,1 mm 5 mps 752 mmHg 86%
    23:00 -1°C° 0 mm 5 mps 752 mmHg 87%
    Mostrar más